Location: ????????
(48.4751°N, 37.6926°E)
Time: 11:58:37
(UTC+00:00)

ATLAS 3B R/B - Pass Details

Date: 20 January 2021
Orbit: 1006 x 1189 km, 63.8° (Epoch: 24 February)

Event Time Altitude Azimuth Distance (km) Brightness Sun altitude
Rises 15:11:53 0° 316° (NW) 3,870 6.0 -10.3°
Reaches altitude 10° 15:14:36 10° 310° (NW) 2,937 5.4 -10.7°
Maximum altitude 15:21:07 43° 242° (WSW) 1,519 4.1 -11.7°
Drops below altitude 10° 15:27:52 10° 173° (S) 3,044 5.2 -12.8°
Sets 15:30:45 0° 167° (SSE) 4,022 5.8 -13.3°
